Weather History for EBBR - January, 2013

Change the Weather History Date:

Friday, January 25, 2013

  Actual Average Record
Temperature  
Mean Temperature 24 °F -  
Max Temperature 28 °F 43 °F 55 °F (1999)
Min Temperature 19 °F 34 °F 19 °F (2013)
Degree Days  
Heating Degree Days 42    
Moisture  
Dew Point 20 °F    
Average Humidity 79    
Maximum Humidity 93    
Minimum Humidity 62    
Precipitation  
Precipitation 0.00 in - - ()
Sea Level Pressure  
Sea Level Pressure 30.06 in    
Wind  
Wind Speed 3 mph ()    
Max Wind Speed 13 mph    
Max Gust Speed -    
Visibility 4.7 miles    
Events Fog , Snow    
Averages and records for this station are not official NWS values.
T = Trace of Precipitation, MM = Missing Value Source: Averaged Metar Reports

Daily Weather History Graph

Daily Weather History Graph

Search for Another Location

Airport or City:

Trip Planner

Search our weather history database for the weather conditions in past years. The results will help you decide how hot, cold, wet, or windy it might be!

Date:

Astronomy

Jan. 25, 2013 Rise Set
Actual Time 8:27 AM CET 5:21 PM CET
Civil Twilight 7:51 AM CET 5:57 PM CET
Nautical Twilight 7:10 AM CET 6:38 PM CET
Astronomical Twilight 6:32 AM CET 7:17 PM CET
Moon 4:02 PM CET (1/25) 6:58 AM CET (1/25)
Length of Visible Light 10h 06m
Length of Day
8h 53m
Waxing Gibbous, 97% of the Moon is Illuminated
Jan 25
Waxing Gibbous
Jan 27
Full
Feb 3
Last Quarter
Feb 10
New
Feb 17
First Quarter

Hourly Weather History & Observations

Time (CET) Temp. Windchill Dew Point Humidity Pressure Visibility Wind Dir Wind Speed Gust Speed Precip Events Conditions
12:20 AM 21.2 °F - 17.6 °F 86% 30.12 in 2.5 mi NNW 2.3 mph - N/A   Mostly Cloudy
12:50 AM 21.2 °F - 19.4 °F 93% 30.12 in - NNW 1.2 mph - N/A   Mostly Cloudy
1:00 AM 22 °F - 19 °F 81% 30.15 in 2 mi NNW 2.2 mph - -   Mist
1:20 AM 21.2 °F - 19.4 °F 93% 30.12 in - NNW 1.2 mph - N/A   Mostly Cloudy
1:50 AM 23.0 °F - 19.4 °F 86% 30.12 in - Calm Calm - N/A   Mostly Cloudy
2:20 AM 23.0 °F - 19.4 °F 86% 30.12 in 2.8 mi Calm Calm - N/A   Mostly Cloudy
2:50 AM 23.0 °F - 19.4 °F 86% 30.12 in 2.8 mi Calm Calm - N/A   Mostly Cloudy
3:20 AM 23.0 °F - 19.4 °F 86% 30.12 in 2.8 mi Calm Calm - N/A   Mostly Cloudy
3:50 AM 21.2 °F - 19.4 °F 93% 30.12 in 2.5 mi NE 1.2 mph - N/A   Mostly Cloudy
4:00 AM 22 °F - 19 °F 85% 30.15 in 2 mi NE 2.2 mph - -   Mist
4:20 AM 21.2 °F - 19.4 °F 93% 30.12 in 2.5 mi Calm Calm - N/A   Mostly Cloudy
4:50 AM 21.2 °F - 19.4 °F 93% 30.12 in 2.5 mi ENE 1.2 mph - N/A   Mostly Cloudy
5:20 AM 19.4 °F - 17.6 °F 93% 30.12 in - Variable 1.2 mph - N/A   Scattered Clouds
5:50 AM 21.2 °F - 19.4 °F 93% 30.12 in 1.4 mi ESE 1.2 mph - N/A Fog Mostly Cloudy
6:20 AM 21.2 °F - 19.4 °F 93% 30.12 in 1.7 mi SE 1.2 mph - N/A Fog Mostly Cloudy
6:50 AM 23.0 °F - 19.4 °F 86% 30.12 in 6.2 mi ESE 2.3 mph - N/A   Mostly Cloudy
7:00 AM 22 °F - 20 °F 86% 30.14 in 2 mi ESE 2.2 mph - -   Mist
7:20 AM 23.0 °F - 19.4 °F 86% 30.12 in 2.5 mi Calm Calm - N/A   Mostly Cloudy
7:50 AM 23.0 °F - 19.4 °F 86% 30.12 in 3.1 mi Variable 1.2 mph - N/A   Mostly Cloudy
8:20 AM 24.8 °F - 21.2 °F 86% 30.12 in 3.1 mi East 1.2 mph - N/A   Mostly Cloudy
8:50 AM 24.8 °F - 19.4 °F 80% 30.12 in 5.0 mi South 1.2 mph - N/A   Mostly Cloudy
9:20 AM 24.8 °F - 19.4 °F 80% 30.12 in 5.6 mi South 1.2 mph - N/A   Mostly Cloudy
9:50 AM 24.8 °F - 17.6 °F 74% 30.12 in 6.2 mi Calm Calm - N/A   Mostly Cloudy
10:00 AM 25 °F - 18 °F 66% 30.15 in 6 mi Calm Calm - -   Mostly Cloudy
10:20 AM 23.0 °F 18.4 °F 17.6 °F 80% 30.12 in 6.2 mi ENE 3.5 mph - N/A   Mostly Cloudy
10:50 AM 24.8 °F - 21.2 °F 86% 30.12 in 3.1 mi ENE 2.3 mph - N/A   Mostly Cloudy
11:20 AM 26.6 °F - 21.2 °F 80% 30.12 in 2.5 mi East 1.2 mph - N/A   Mostly Cloudy
11:50 AM 26.6 °F - 23.0 °F 86% 30.12 in 2.5 mi Calm Calm - N/A   Mostly Cloudy
12:20 PM 28.4 °F - 23.0 °F 80% 30.09 in 3.1 mi Variable 1.2 mph - N/A Snow Light Snow Grains
12:50 PM 28.4 °F 23.3 °F 21.2 °F 74% 30.09 in 3.7 mi SSE 4.6 mph - N/A   Mostly Cloudy
1:00 PM 28 °F - 22 °F 69% 30.12 in 4 mi SSE 4.5 mph - - Snow Light Snow
1:20 PM 28.4 °F 23.3 °F 21.2 °F 74% 30.09 in 4.3 mi SSE 4.6 mph - N/A   Mostly Cloudy
1:50 PM 28.4 °F 22.2 °F 21.2 °F 74% 30.06 in 6.2 mi SSE 5.8 mph - N/A   Mostly Cloudy
2:20 PM 28.4 °F 22.2 °F 19.4 °F 69% 30.06 in 6.2 mi South 5.8 mph - N/A   Mostly Cloudy
2:50 PM 28.4 °F 21.2 °F 19.4 °F 69% 30.04 in 5.6 mi South 6.9 mph - N/A   Mostly Cloudy
3:20 PM 28.4 °F 21.2 °F 19.4 °F 69% 30.04 in 5.6 mi South 6.9 mph - N/A   Mostly Cloudy
3:50 PM 26.6 °F 18.2 °F 19.4 °F 74% 30.06 in 5.6 mi South 8.1 mph - N/A   Mostly Cloudy
4:00 PM 27 °F - 19 °F 62% 30.08 in 6 mi South 6.7 mph - -   Mostly Cloudy
4:20 PM 26.6 °F 18.2 °F 21.2 °F 80% 30.04 in 6.2 mi South 8.1 mph - N/A   Mostly Cloudy
4:50 PM 26.6 °F 19.1 °F 21.2 °F 80% 30.04 in 6.2 mi South 6.9 mph - N/A   Mostly Cloudy
5:20 PM 26.6 °F 18.2 °F 19.4 °F 74% 30.04 in 6.2 mi South 8.1 mph - N/A   Mostly Cloudy
5:50 PM 26.6 °F 20.0 °F 19.4 °F 74% 30.01 in 5.6 mi SSE 5.8 mph - N/A   Mostly Cloudy
6:20 PM 26.6 °F 18.2 °F 19.4 °F 74% 30.01 in 5.6 mi South 8.1 mph - N/A   Mostly Cloudy
6:50 PM 26.6 °F 17.5 °F 19.4 °F 74% 29.98 in 6.2 mi South 9.2 mph - N/A   Mostly Cloudy
7:00 PM 27 °F - 19 °F 63% 30.01 in 7 mi South 8.9 mph - -   Overcast
7:20 PM 26.6 °F 16.8 °F 19.4 °F 74% 29.98 in 6.2 mi South 10.4 mph - N/A   Mostly Cloudy
7:50 PM 26.6 °F 16.8 °F 19.4 °F 74% 29.95 in 6.2 mi South 10.4 mph - N/A   Mostly Cloudy
8:20 PM 26.6 °F 17.5 °F 19.4 °F 74% 29.95 in 6.2 mi South 9.2 mph - N/A   Mostly Cloudy
8:50 PM 28.4 °F 18.0 °F 21.2 °F 74% 29.92 in 6.2 mi South 12.7 mph - N/A   Mostly Cloudy
9:20 PM 28.4 °F 19.7 °F 21.2 °F 74% 29.92 in 6.2 mi South 9.2 mph - N/A   Mostly Cloudy
9:50 PM 28.4 °F 19.1 °F 21.2 °F 74% 29.89 in 6.2 mi South 10.4 mph - N/A   Mostly Cloudy
10:00 PM 28 °F - 21 °F 64% 29.93 in 12 mi South 11.2 mph - -   Overcast
10:20 PM 28.4 °F 18.5 °F 21.2 °F 74% 29.89 in 6.2 mi South 11.5 mph - N/A   Mostly Cloudy
10:50 PM 28.4 °F 19.1 °F 21.2 °F 74% 29.86 in 6.2 mi South 10.4 mph - N/A   Mostly Cloudy
11:20 PM 26.6 °F 18.2 °F 21.2 °F 80% 29.86 in 6.2 mi South 8.1 mph - N/A   Scattered Clouds
11:50 PM 26.6 °F 19.1 °F 19.4 °F 74% 29.86 in 6.2 mi South 6.9 mph - N/A   Partly Cloudy